IRIDIUM 47 [-]

Last updated on Tue Aug 28 2018 14:42:34 GMT+0000 (Coordinated Universal Time)

1 25106U 97082C 18240.47101891 .03939358 -17294-5 89627-3 0 9990 2 25106 86.4049 71.7516 0214385 148.4609 212.9941 15.91622043 83180

Satellite not in orbit